Location: Ciula Mare
(45.6000°N, 22.8167°E)
Time: 11:12:43
(UTC+00:00)

COSMOS 2428 - Pass Details

Date: 03 February 2023
Orbit: 843 x 858 km, 70.9° (Epoch: 21 March)

Event Time Altitude Azimuth Distance (km) Brightness Sun altitude
Rises 18:26:51 0° 204° (SSW) 3,390 6.0 -29.8°
Reaches altitude 10° 18:29:17 10° 204° (SSW) 2,458 5.3 -30.2°
Enters shadow 18:32:25 35° 205° (SSW) 1,334 3.8 -30.8°
